"Pseudo-MPEC" for P11p9MW

Created 2021 Nov 26 3:07:12 UT using Find_Orb

Click here for an explanation of pseudo-MPECs

 
 Astrometry: 
     P11p9MW  C2021 11 22K/1[+d7[sN(`B!#U0T8$eQ.cFSV#F8]KGn,R2xg+LokoqH$[W9BGF51
     P11p9MW  C2021 11 22G_GT;J!..UV3bi1ON7yt`pvd+SZDv'k5OEQS_a'nrn0;Y:ip9=1cF51
     P11p9MW  C2021 11 22:unmV8i7]Yf(0@]I[q-f(HEBlo[/DIlq2*:IgsjIAstrometry]dF51
     P11p9MW  C2021 11 23`,y$Xaj`/i\U_q??oBuredacted;a9-ET12MU51?vqrT)YyiCh%RF51
     P11p9MW  C2021 11 23'PqGE:B`-*+;;qiclickp-Ti]%a7/u6RY2p`bBab6^HCh._]%(SfF51
     P11p9MW |C2021 11 246vI;7;$2+W*diU%+wfm3$Vl$oO]w\J32M)Jh-\tdA8-v=9s^,,b/807
     P11p9MW |C2021 11 24Z28cuhw-o18gH2,i$9ev,8ZmDvI:_*LxHjMjg4_GFw4Hct7hhdtn807
     P11p9MW |C2021 11 24xAlNk,hu3fC#mgD[Lk[$Y)gT@/BvMpjK8\T)CBXVbU3/BWherejn807
     P11p9MW KC2021 11 25.08159806 20 27.77 -42 01 37.6    ~BP2b 18.8 GXNEOCPY00
     P11p9MW KC2021 11 25.08810906 20 24.48 -42 00 52.6    ~BP2b 19.3 GXNEOCPY00
     P11p9MW KC2021 11 25.09442706 20 21.30 -42 00 08.7    ~BP2b 19.1 GXNEOCPY00
     P11p9MW |C2021 11 25Lr[/:iPIew\KN-01*Ri`nDM#@*Hh`N;v]UegX+n/A?2ovZ1)#Kw!807
     P11p9MW |C2021 11 25yUA]#/D+JthY_V8D$GeC34#0nh9q:jrmE9*#(-MP-,y`dFLaZ`dD807
     P11p9MW |C2021 11 25/Sfor]GMSnMlR)I[7w7g^SM]:k]@R=Z;iIxJJ#-IK6s,'JCHbwuE807
     P11p9MW KC2021 11 25kf\1rkio58H_=(55e`%^l-bjUJA+I2q,wj`B3UWexplanationK#E94
     P11p9MW KC2021 11 25pB+2Xtxr6?-S/W*G's3m=M5P(GU`qxE*0@\(tL![%0w]:y0r+WiXE94
     P11p9MW KC2021 11 25m?:nteLI6t_?n2tOk+(y%dQ+A@ch_X\42:2%Q,eJwD)B)d%)i%GuE94

Station data:
(807) Cerro Tololo Observatory, La Serena  (S30.169136 W70.805900)  Chile.
(E94) Gisborne (Possum Observatory)  (S38.629922 E177.883310)  New Zealand.
(F51) Pan-STARRS 1, Haleakala  (N20.707235 W156.255910)  US/Hawaii.
   Observers N. Primak, A. Schultz, S. Watters, J. Thiel, T. Goggia. Measurer
   PS1 Science Consortium. 1.8-m Ritchey-Chrétien + CCD.
(Y00) SONEAR Observatory, Oliveira  (S20.715082 W44.784960)  Brazil.
   Observers C. Jacques, E. Pimentel, J. Barros. Measurer C. Jacques. 0.28-m
   f/2.2 astrograph + CCD.

Orbital elements:  P11p9MW
   Perihelion 2021 Sep 28.571832 +/- 0.259467 TT = 13:43:26 (JD 2459486.071832)
Epoch 2021 Nov 25.0 TT = JDT 2459543.5   Earth MOID: 0.1456   Ve: 0.0554
M  21.24899181 +/- 0.8377332        Ma: 0.0689                AutoNEOCP
n   0.37000992 +/- 0.0127539        Peri.  238.93173 +/- 0.3534944
a   1.92158885 +/- 0.0441558        Node    93.12670 +/- 0.1548458
e   0.6559052 +/- 0.0081764         Incl.   27.61555 +/- 0.4163256
P   2.66/972.93d           H 19.8   G  0.15   U  9.8  
q 0.66120860 +/- 0.000510732    Q 3.18196909 +/- 0.0863718
From 17 observations 2021 Nov. 22-25; mean residual 0".26
Residuals in arcseconds: 
211122 F51  .26-  .03+    211124 807  .41-  .11+    211125 807  .09-  .18+    
211122 F51  .01+  .08-    211124 807  .08+  .14-    211125 807  .22+  .26+    
211122 F51  .25+  .26-    211125 Y00  .07+  .16-    211125 E94  .25+  .27+    
211123 F51  .06+  .46+    211125 Y00  .01-  .12-    211125 E94  .05-  .37-    
211123 F51  .23+  .26+    211125 Y00  .07+  .11+    211125 E94  .75-  .42+    
211124 807  .56-  .12-    211125 807  .16+  .21+    

Ephemerides (geocentric):
Date (UTC) HH   RA              Dec         delta   r     elong  mag " sig PA
---- -- -- --  -------------   -----------  ------ ------ -----  --- ---- ---
2021 11 26 03  06 12 05.733   -39 58 11.30  .28055 1.1246 112.5 19.3 .274  76
2021 11 26 04  06 11 46.323   -39 53 11.74  .28056 1.1251 112.6 19.3 .279  76
2021 11 26 05  06 11 26.957   -39 48 11.90  .28057 1.1255 112.7 19.3 .283  75
2021 11 26 06  06 11 07.632   -39 43 11.77  .28058 1.1260 112.8 19.3 .288  74
2021 11 26 07  06 10 48.350   -39 38 11.37  .28058 1.1264 113.0 19.2 .293  74
2021 11 26 08  06 10 29.111   -39 33 10.68  .28059 1.1269 113.1 19.2 .298  73
2021 11 26 09  06 10 09.914   -39 28 09.72  .28060 1.1273 113.2 19.2 .303  73
2021 11 26 10  06 09 50.759   -39 23 08.49  .28062 1.1278 113.3 19.2 .308  72
2021 11 26 11  06 09 31.646   -39 18 06.99  .28063 1.1282 113.4 19.2 .313  72
2021 11 26 12  06 09 12.576   -39 13 05.23  .28064 1.1287 113.5 19.2 .319  72
2021 11 26 13  06 08 53.547   -39 08 03.19  .28066 1.1291 113.6 19.2 .324  71
2021 11 26 14  06 08 34.561   -39 03 00.90  .28067 1.1296 113.8 19.2 .329  71
2021 11 26 15  06 08 15.616   -38 57 58.35  .28069 1.1300 113.9 19.2 .335  71
2021 11 26 16  06 07 56.714   -38 52 55.54  .28070 1.1305 114.0 19.2 .340  71
2021 11 26 17  06 07 37.853   -38 47 52.48  .28072 1.1309 114.1 19.2 .346  70
2021 11 26 18  06 07 19.034   -38 42 49.17  .28074 1.1314 114.2 19.2 .352  70
2021 11 26 19  06 07 00.256   -38 37 45.60  .28076 1.1318 114.3 19.2 .357  70
2021 11 26 20  06 06 41.520   -38 32 41.80  .28078 1.1323 114.4 19.2 .363  70
2021 11 26 21  06 06 22.826   -38 27 37.75  .28080 1.1327 114.6 19.2 .369  70
2021 11 26 22  06 06 04.173   -38 22 33.46  .28082 1.1332 114.7 19.2 .375  70
2021 11 26 23  06 05 45.561   -38 17 28.93  .28085 1.1336 114.8 19.2 .381  70
2021 11 27 00  06 05 26.991   -38 12 24.17  .28087 1.1341 114.9 19.2 .387  70
2021 11 27 01  06 05 08.462   -38 07 19.17  .28090 1.1345 115.0 19.2 .393  70
2021 11 27 02  06 04 49.974   -38 02 13.95  .28092 1.1350 115.1 19.2 .399  70
2021 11 27 03  06 04 31.527   -37 57 08.50  .28095 1.1354 115.2 19.2 .405  70
2021 11 27 04  06 04 13.121   -37 52 02.82  .28098 1.1359 115.4 19.2 .412  70
2021 11 27 05  06 03 54.757   -37 46 56.92  .28101 1.1363 115.5 19.2 .418  71
2021 11 27 06  06 03 36.433   -37 41 50.81  .28104 1.1368 115.6 19.2 .424  71
2021 11 27 07  06 03 18.150   -37 36 44.48  .28107 1.1372 115.7 19.2 .431  71
2021 11 27 08  06 02 59.907   -37 31 37.93  .28110 1.1377 115.8 19.2 .437  71
2021 11 27 09  06 02 41.706   -37 26 31.18  .28113 1.1381 115.9 19.2 .444  72
2021 11 27 10  06 02 23.545   -37 21 24.21  .28116 1.1385 116.0 19.2 .451  72
2021 11 27 11  06 02 05.424   -37 16 17.04  .28120 1.1390 116.2 19.2 .457  72
2021 11 27 12  06 01 47.344   -37 11 09.67  .28123 1.1394 116.3 19.2 .464  73
2021 11 27 13  06 01 29.304   -37 06 02.10  .28127 1.1399 116.4 19.2 .471  73
2021 11 27 14  06 01 11.305   -37 00 54.33  .28130 1.1403 116.5 19.2 .478  73
2021 11 27 15  06 00 53.346   -36 55 46.37  .28134 1.1408 116.6 19.2 .485  74
2021 11 27 16  06 00 35.427   -36 50 38.22  .28138 1.1412 116.7 19.2 .492  74
2021 11 27 17  06 00 17.549   -36 45 29.87  .28142 1.1417 116.8 19.2 .500  75
2021 11 27 18  05 59 59.710   -36 40 21.34  .28146 1.1421 116.9 19.2 .507  75
2021 11 27 19  05 59 41.911   -36 35 12.63  .28150 1.1426 117.1 19.2 .515  75
2021 11 27 20  05 59 24.153   -36 30 03.74  .28155 1.1430 117.2 19.2 .522  76
2021 11 27 21  05 59 06.434   -36 24 54.67  .28159 1.1435 117.3 19.2 .530  76
2021 11 27 22  05 58 48.755   -36 19 45.42  .28163 1.1439 117.4 19.2 .538  77
2021 11 27 23  05 58 31.115   -36 14 36.00  .28168 1.1444 117.5 19.2 .546  77
2021 11 28 00  05 58 13.516   -36 09 26.41  .28172 1.1448 117.6 19.2 .554  78
2021 11 28 01  05 57 55.955   -36 04 16.66  .28177 1.1453 117.7 19.2 .562  79
2021 11 28 02  05 57 38.435   -35 59 06.74  .28182 1.1457 117.9 19.2 .571  79